Hlavní strana
METAR-TAF:

METAR-TAF

Letiště :

Røst, Norsko

zeměpisná šířka: 67-31N, zeměpisná délka: 012-06E, výška: 4 m

Aktuální stav počasí

Zpráva byla vytvořena před 34 minutami, v 06:20 UTC
Západojihozápadní vítr 12 kt
Teplota 8°C
Vlhkost vzduchu 93%
Tlak 1003 hPa
Viditelnost 10 km a více
Skoro jasno ve výšce 1200 ft
Oblačno až skoro zataženo ve výšce 4600 ft

METAR: ENRS 130620Z 25012KT 9999 FEW012 BKN046 08/07 Q1003

Čas: 07:54 (06:54 UTC)


TAF: chybějící

Stav a předpovědi počasí z více než 4 000 letišť (zprávy METAR a TAF).

Červené a žluté tečky na mapě představují dostupné meteorologické stanice.

Když kurzor umístíte na tečku, zobrazí se název stanice.

Pak kliknutím zobrazíte stav a předpověď počasí.

Chcete-li změnit mapu, kliknutím na zelené tlačítko se znaménkem +mapu přiblížíte, kliknutím na zelené tlačítko se znaménkem – mapu oddálíte a kliknutím na zelené šipky přejdete na sousední mapy.


METAR-TAF: